Weather History for Boerne Stage Field, TX

Change the Weather History Date:

Tuesday, February 25, 2014

  Actual Average (KSAT) Record (KSAT)
Temperature  
Mean Temperature 62 °F 58 °F  
Max Temperature 73 °F 69 °F 92 °F (2008)
Min Temperature 51 °F 47 °F 21 °F (1960)
Degree Days  
Heating Degree Days 3 8  
Month to date heating degree days 259  
Since 1 July heating degree days 1277  
Cooling Degree Days 0 1  
Month to date cooling degree days 21  
Year to date cooling degree days 28  
Growing Degree Days 12 (Base 50)    
Moisture  
Dew Point 59 °F    
Average Humidity 86    
Maximum Humidity 100    
Minimum Humidity 65    
Precipitation  
Precipitation 0.01 in 0.06 in 1.96 in (1949)
Month to date precipitation 1.58  
Year to date precipitation 3.34  
Snow  
Snow 0.00 in - - ()
Month to date snowfall  
Since 1 July snowfall  
Snow Depth -    
Sea Level Pressure  
Sea Level Pressure 30.00 in    
Wind  
Wind Speed 3 mph (SE)    
Max Wind Speed 13 mph    
Max Gust Speed 18 mph    
Visibility 6 miles    
Events      
T = Trace of Precipitation, MM = Missing Value Source: NWS Daily Summary

Daily Weather History Graph

Daily Weather History Graph

Search for Another Location

Airport:

Trip Planner

Search our weather history database for the weather conditions in past years. The results will help you decide how hot, cold, wet, or windy it might be!

Date:

Astronomy

Feb. 25, 2014 Rise Set
Actual Time 7:04 AM CST 6:31 PM CST
Civil Twilight 6:40 AM CST 6:55 PM CST
Nautical Twilight 6:12 AM CST 7:23 PM CST
Astronomical Twilight 5:45 AM CST 7:50 PM CST
Moon 3:48 AM CST (2/25) 2:50 PM CST (2/25)
Length of Visible Light 12h 14m
Length of Day
11h 26m
Waning Crescent, 18% of the Moon is Illuminated
Feb 25
Waning Crescent
Mar 1
New
Mar 8
First Quarter
Mar 16
Full
Mar 23
Last Quarter

Hourly Weather History & Observations

Time (CST) Temp. Dew Point Humidity Pressure Visibility Wind Dir Wind Speed Gust Speed Precip Events Conditions
12:15 AM 60.8 °F 55.4 °F 82% 30.03 in 7.0 mi Calm Calm - N/A   Clear
12:35 AM 59.0 °F 55.4 °F 88% 30.02 in 7.0 mi Calm Calm - N/A   Mostly Cloudy
12:55 AM 60.8 °F 55.4 °F 82% 30.02 in 7.0 mi Calm Calm - N/A   Overcast
1:15 AM 60.8 °F 55.4 °F 82% 30.01 in 7.0 mi Calm Calm - N/A   Overcast
1:35 AM 60.8 °F 55.4 °F 82% 30.01 in 7.0 mi Calm Calm - N/A   Overcast
1:55 AM 60.8 °F 55.4 °F 82% 30.01 in 7.0 mi Calm Calm - N/A   Overcast
2:15 AM 60.8 °F 57.2 °F 88% 30.01 in 7.0 mi Calm Calm - N/A   Overcast
2:35 AM 62.6 °F 59.0 °F 88% 30.01 in 7.0 mi Calm Calm - N/A   Overcast
2:55 AM 62.6 °F 59.0 °F 88% 30.00 in 5.0 mi Calm Calm - N/A   Overcast
3:15 AM 62.6 °F 59.0 °F 88% 30.00 in 5.0 mi Calm Calm - N/A   Overcast
3:35 AM 62.6 °F 59.0 °F 88% 29.99 in 2.5 mi Calm Calm - N/A   Overcast
3:55 AM 62.6 °F 60.8 °F 94% 29.98 in 0.8 mi Calm Calm - N/A   Overcast
4:15 AM 62.6 °F 60.8 °F 94% 29.99 in 0.5 mi Calm Calm - N/A   Overcast
4:35 AM 62.6 °F 60.8 °F 94% 29.98 in 0.5 mi Calm Calm - N/A   Overcast
4:55 AM 62.6 °F 60.8 °F 94% 29.98 in 0.5 mi Calm Calm - N/A   Overcast
5:15 AM 62.6 °F 60.8 °F 94% 29.98 in 0.2 mi Calm Calm - N/A   Overcast
5:35 AM 62.6 °F 60.8 °F 94% 29.99 in 0.2 mi Calm Calm - N/A   Overcast
5:55 AM 62.6 °F 60.8 °F 94% 29.99 in 0.2 mi Calm Calm - N/A   Overcast
6:15 AM 62.6 °F 60.8 °F 94% 30.01 in 0.5 mi SE 3.5 mph - N/A   Overcast
6:35 AM 62.6 °F 60.8 °F 94% 30.01 in 1.0 mi Calm Calm - N/A   Overcast
6:55 AM 62.6 °F 60.8 °F 94% 30.01 in 1.5 mi Calm Calm - N/A   Overcast
7:15 AM 62.6 °F 60.8 °F 94% 30.01 in 1.5 mi South 4.6 mph - N/A   Overcast
7:35 AM 62.6 °F 60.8 °F 94% 30.02 in 1.5 mi South 3.5 mph - N/A   Overcast
7:55 AM 62.6 °F 60.8 °F 94% 30.02 in 1.5 mi Calm Calm - N/A   Overcast
8:15 AM 62.6 °F 60.8 °F 94% 30.03 in 1.5 mi Calm Calm - N/A   Overcast
8:35 AM 62.6 °F 60.8 °F 94% 30.03 in 1.5 mi SSE 4.6 mph - N/A   Overcast
8:55 AM 62.6 °F 62.6 °F 100% 30.04 in 1.5 mi SE 3.5 mph - N/A   Overcast
9:15 AM 64.4 °F 62.6 °F 94% 30.05 in 2.0 mi SE 3.5 mph - N/A   Overcast
9:35 AM 64.4 °F 62.6 °F 94% 30.05 in 2.5 mi SE 3.5 mph - N/A   Overcast
9:55 AM 64.4 °F 62.6 °F 94% 30.05 in 3.0 mi SE 5.8 mph - N/A   Overcast
10:15 AM 64.4 °F 62.6 °F 94% 30.05 in 3.0 mi SE 5.8 mph - N/A   Overcast
10:35 AM 64.4 °F 62.6 °F 94% 30.06 in 4.0 mi ESE 6.9 mph - N/A   Overcast
10:55 AM 64.4 °F 62.6 °F 94% 30.05 in 2.5 mi SE 6.9 mph - N/A   Overcast
11:15 AM 64.4 °F 62.6 °F 94% 30.06 in 5.0 mi SE 4.6 mph - N/A   Overcast
11:35 AM 64.4 °F 62.6 °F 94% 30.04 in 7.0 mi ESE 5.8 mph - N/A   Overcast
11:55 AM 64.4 °F 62.6 °F 94% 30.04 in 7.0 mi ESE 3.5 mph - N/A   Overcast
12:15 PM 66.2 °F 62.6 °F 88% 30.03 in 7.0 mi East 3.5 mph - N/A   Overcast
12:35 PM 66.2 °F 62.6 °F 88% 30.02 in 7.0 mi SE 4.6 mph - N/A   Overcast
12:55 PM 68.0 °F 62.6 °F 83% 30.02 in 7.0 mi Calm Calm - N/A   Overcast
1:15 PM 68.0 °F 62.6 °F 83% 30.00 in 5.0 mi ESE 3.5 mph - N/A   Overcast
1:35 PM 68.0 °F 62.6 °F 83% 29.99 in 7.0 mi SSE 3.5 mph - N/A   Overcast
1:55 PM 71.6 °F 62.6 °F 73% 29.97 in 10.0 mi SSE 5.8 mph - N/A   Mostly Cloudy
2:15 PM 71.6 °F 62.6 °F 73% 29.95 in 10.0 mi SSE 9.2 mph - N/A   Mostly Cloudy
2:35 PM 71.6 °F 60.8 °F 69% 29.94 in 10.0 mi SSE 8.1 mph - N/A   Mostly Cloudy
2:55 PM 73.4 °F 60.8 °F 65% 29.93 in 10.0 mi South 10.4 mph - N/A   Scattered Clouds
3:15 PM 73.4 °F 60.8 °F 65% 29.93 in 10.0 mi South 8.1 mph - N/A   Clear
3:35 PM 71.6 °F 60.8 °F 69% 29.93 in 10.0 mi South 5.8 mph - N/A   Scattered Clouds
3:55 PM 71.6 °F 60.8 °F 69% 29.93 in 10.0 mi South 5.8 mph - N/A   Mostly Cloudy
4:15 PM 71.6 °F 60.8 °F 69% 29.93 in 10.0 mi South 5.8 mph - N/A   Mostly Cloudy
4:35 PM 71.6 °F 60.8 °F 69% 29.93 in 10.0 mi South 4.6 mph - N/A   Mostly Cloudy
4:55 PM 71.6 °F 60.8 °F 69% 29.93 in 10.0 mi South 6.9 mph - N/A   Mostly Cloudy
5:15 PM 71.6 °F 60.8 °F 69% 29.92 in 10.0 mi SSE 3.5 mph - N/A   Overcast
5:35 PM 71.6 °F 60.8 °F 69% 29.93 in 10.0 mi SE 4.6 mph - N/A   Overcast
5:55 PM 69.8 °F 60.8 °F 73% 29.93 in 10.0 mi South 4.6 mph - N/A   Overcast
6:15 PM 69.8 °F 60.8 °F 73% 29.93 in 10.0 mi SE 4.6 mph - N/A   Overcast
6:35 PM 69.8 °F 60.8 °F 73% 29.94 in 10.0 mi Calm Calm - N/A   Overcast
6:55 PM 69.8 °F 60.8 °F 73% 29.94 in 10.0 mi Calm Calm - N/A   Overcast
7:15 PM 69.8 °F 60.8 °F 73% 29.95 in 10.0 mi SE 3.5 mph - N/A   Overcast
7:35 PM 62.6 °F 57.2 °F 82% 29.97 in 10.0 mi NE 9.2 mph 16.1 mph N/A   Overcast
7:55 PM 60.8 °F 57.2 °F 88% 29.98 in 10.0 mi NE 5.8 mph - N/A   Overcast
8:15 PM 60.8 °F 57.2 °F 88% 29.99 in 7.0 mi NE 5.8 mph - N/A   Overcast
8:35 PM 59.0 °F 55.4 °F 88% 30.00 in 7.0 mi NNE 6.9 mph - N/A   Overcast
8:55 PM 57.2 °F 55.4 °F 94% 30.01 in 7.0 mi North 8.1 mph - N/A   Overcast
9:15 PM 57.2 °F 53.6 °F 88% 30.03 in 5.0 mi North 9.2 mph - N/A   Overcast
9:35 PM 55.4 °F 53.6 °F 94% 30.01 in 7.0 mi North 6.9 mph - N/A   Overcast
9:55 PM 53.6 °F 51.8 °F 94% 30.01 in 5.0 mi North 6.9 mph - 0.01 in   Overcast
10:15 PM 53.6 °F 51.8 °F 94% 30.01 in 5.0 mi North 8.1 mph - N/A   Overcast
10:35 PM 53.6 °F 51.8 °F 94% 30.02 in 5.0 mi North 10.4 mph 16.1 mph N/A   Overcast
10:55 PM 51.8 °F 50.0 °F 94% 30.02 in 5.0 mi North 9.2 mph - N/A   Overcast
11:15 PM 51.8 °F 50.0 °F 94% 30.02 in 4.0 mi North 6.9 mph - N/A   Overcast
11:35 PM 51.8 °F 50.0 °F 94% 30.03 in 4.0 mi North 12.7 mph 16.1 mph N/A   Overcast
11:55 PM 51.8 °F 50.0 °F 94% 30.03 in 4.0 mi North 11.5 mph 18.4 mph N/A   Overcast